Weather Roundup
Issued by NWS

Home | Current Version | Previous Version | Text Only | Print | Product List | Glossary On
Versions: 1 2 3 4 5 6 7 8 9 10 11 12 13 14 15 16 17 18 19 20 21 22 23 24 25 26 27 28 29 30 31 32 33 34 35 36 37 38 39 40 41 42 43 44 45 46 47 48 49 50
000
NZUS93 KARX 010310
HRRWXR

CURRENT HOURLY OBSERVATIONS ACROSS
MUCH OF THE UPPER MISSISSIPPI VALLEY
NATIONAL WEATHER SERVICE LA CROSSE WI
1000 PM CDT TUE JUN 30 2015


...SOUTHEAST MINNESOTA...


CITY           SKY/WX    TMP DP  RH WIND       PRES   REMARKS
ROCHESTER      MOCLDY    63  54  72 NE5       29.96R
ROCHESTER/MAYO FAIR      66  55  66 NE3       29.95R
WINONA         PTCLDY    68  54  60 NE5       29.95R
AUSTIN         MOCLDY    64  57  77 CALM      29.95R
ALBERT LEA     MOCLDY    64  61  88 NE5       29.95R
DODGE CENTER   PTCLDY    64  55  72 NE3       29.97R
PRESTON        PTCLDY    62  55  78 N3        29.96R
OWATONNA       MOCLDY    66  57  72 NE6       29.95R
FARIBAULT      MOCLDY    64  57  77 NE3       29.96R
$$

...ELSEWHERE IN MINNESOTA...


CITY           SKY/WX    TMP DP  RH WIND       PRES   REMARKS
MINNEAPOLIS    MOCLDY    69  56  62 E9        29.94R
INTNL FALLS    MOCLDY    55  52  89 CALM      29.96R
DULUTH         PTCLDY    52  45  77 E5        29.98R
RED WING       CLEAR     64  55  72 E5        29.95R
REDWOOD FALLS  PTCLDY    67  63  87 E5        29.92S
MANKATO        MOCLDY    66  59  77 SE3       29.94R
WORTHINGTON    CLOUDY    66  59  77 E7        29.93F
FAIRMONT       CLOUDY    66  59  77 CALM      29.94R
$$

...SOUTHWEST WISCONSIN...


CITY           SKY/WX    TMP DP  RH WIND       PRES   REMARKS
LA CROSSE      PTCLDY    64  55  72 N5        29.93R
PRAIRIE DU CHI CLEAR     63  56  79 CALM      29.92R
BOSCOBEL       CLEAR     62  58  86 E3        29.92R
LONE ROCK      CLEAR     65  54  67 N9        29.93R
PLATTEVILLE    CLEAR     65  60  82 CALM      29.92R
FORT MC COY    CLEAR     58  53  82 CALM      29.95R
CAMP DOUGLAS   CLEAR     54  54 100 N1        29.94R
VIROQUA        FAIR      60  55  84 NE6       29.95R
WIS DELLS      PTCLDY    62  53  73 N3        29.94R
$$

...ELSEWHERE IN WISCONSIN...


CITY           SKY/WX    TMP DP  RH WIND       PRES   REMARKS
MILWAUKEE      MOCLDY    54  50  86 NE7       29.93R
MADISON        MOCLDY    64  54  69 N6        29.91R
GREEN BAY      CLEAR     57  50  77 N15       29.95R
EAU CLAIRE     PTCLDY    60  49  66 NE6       29.96R
BLACK RVR FLS  FAIR      58  57  97 N3        29.95R
MEDFORD        PTCLDY    53  48  81 NE6       29.98R
WAUSAU         PTCLDY    57  46  66 N3        29.96R
WIS RAPIDS     PTCLDY    61  49  64 N9        29.96R
MARSHFIELD     PTCLDY    59  47  64 NE7       29.96R
RICE LAKE      PTCLDY    58  49  74 E3        30.00S
$$

...NORTHEAST IOWA...


CITY           SKY/WX    TMP DP  RH WIND       PRES   REMARKS
DECORAH          N/A    N/A N/A N/A MISG        N/A
MASON CITY     MOCLDY    65  61  87 E3        29.95R
CHARLES CITY   MOCLDY    64  63  94 NW3       29.95R
OELWEIN          N/A     64  61  88 N5        29.94R
$$

...ELSEWHERE IN IOWA...


CITY           SKY/WX    TMP DP  RH WIND       PRES   REMARKS
DES MOINES     CLOUDY    76  64  66 N3        29.90R
IOWA CITY      PTCLDY    72  64  76 NE10      29.91R
FORT DODGE     CLOUDY    70  63  78 NE5       29.94R
$$

...NORTHERN ILLINOIS...


CITY           SKY/WX    TMP DP  RH WIND       PRES   REMARKS
CHICAGO-OHARE  MOCLDY    60  54  80 NE9       29.91R
CHICAGO-MIDWAY PTCLDY    62  56  80 NE5       29.91R
MOLINE         PTCLDY    70  62  76 SE3       29.89R
ROCKFORD       MOCLDY    69  60  73 NW6       29.90R
PEORIA         MOCLDY    73  63  70 N3        29.89R
$$

NOTE: "FAIR" INDICATES FEW OR NO CLOUDS BELOW 12,000 FEET WITH NO
SIGNIFICANT WEATHER AND/OR OBSTRUCTIONS TO VISIBILITY. WIND
SPEEDS ARE IN MILES-PER-HOUR.



USA.gov is the U.S. government's official web portal to all federal, state and local government web resources and services.